N6YV Weather Reports


Display with metric or nautical units.
time (UTC)temp
F
wind
direction
speed
MPH
gust
MPH
rain 1hr
in
rain 24hr
in
rain mn
in
humidity
%
barometer
mb
20260503214554 63 229 17.0 0.0 0.00 0.00 0.00 39 1001.1
20260503213047 70 207 2.0 0.0 0.00 0.00 0.00 22 1000.1
20260503211548 71 26 6.0 0.0 0.00 0.00 0.00 23 1000.1
20260503210040 71 11 6.0 0.0 0.00 0.00 0.00 24 1000.5
20260503204540 70 360 5.0 0.0 0.00 0.00 0.00 29 1000.9
20260503203035 69 343 7.0 0.0 0.00 0.00 0.00 30 1000.9
20260503201532 68 347 6.0 0.0 0.00 0.00 0.00 32 1001.5
20260503200032 68 19 4.0 0.0 0.00 0.00 0.00 33 1001.5
20260503194529 67 37 5.0 0.0 0.00 0.00 0.00 33 1002.0
20260503193027 68 11 6.0 0.0 0.00 0.00 0.00 33 1002.2
20260503191522 67 329 5.0 0.0 0.00 0.00 0.00 35 1002.7
20260503190038 66 59 3.0 0.0 0.00 0.00 0.00 36 1002.8
20260503184516 65 27 3.0 0.0 0.00 0.00 0.00 38 1003.1
20260503183016 65 30 4.0 0.0 0.00 0.00 0.00 39 1003.3
20260503181510 64 9 4.0 0.0 0.00 0.00 0.00 42 1003.5
20260503180011 63 44 3.0 0.0 0.00 0.00 0.00 41 1003.7
20260503174505 62 67 3.0 0.0 0.00 0.00 0.00 47 1003.7
20260503173115 61 71 3.0 0.0 0.00 0.00 0.00 54 1003.8
20260503171557 60 37 2.0 0.0 0.00 0.00 0.00 56 1003.8
20260503081601 52 273 4.0 0.0 0.00 0.00 0.00 73 1005.9
20260503071600 52 97 5.0 0.0 0.00 0.00 0.00 74 1005.3
20260503054543 51 311 3.0 0.0 0.00 0.00 0.05 80 1005.6
20260503053044 51 311 2.0 0.0 0.00 0.00 0.05 82 1005.8
20260503051540 52 311 1.0 0.0 0.00 0.00 0.05 80 1005.9
20260503050039 53 311 1.0 0.0 0.00 0.00 0.05 79 1006.0
20260503044539 53 309 2.0 0.0 0.00 0.00 0.05 72 1005.9
20260503043038 53 307 2.0 0.0 0.00 0.00 0.05 79 1005.7
20260503041537 53 307 0.0 0.0 0.00 0.00 0.05 74 1005.7
20260503040037 53 307 4.0 0.0 0.00 0.00 0.05 73 1005.6
20260503034537 54 74 1.0 0.0 0.00 0.00 0.05 71 1005.6
20260503033043 54 74 0.0 0.0 0.00 0.00 0.05 70 1005.6
20260503031535 54 74 2.0 0.0 0.00 0.00 0.05 69 1005.6
20260503030034 55 59 1.0 0.0 0.00 0.00 0.05 72 1005.4
20260503024537 55 5 2.0 0.0 0.00 0.00 0.05 66 1004.9
20260503023033 55 355 5.0 0.0 0.00 0.00 0.05 66 1004.5
20260503021533 55 360 4.0 0.0 0.00 0.00 0.05 68 1004.2
20260503020034 55 24 5.0 0.0 0.00 0.00 0.05 67 1004.1
20260503014546 56 40 5.0 0.0 0.00 0.00 0.05 66 1004.2
20260503013036 57 336 4.0 0.0 0.00 0.00 0.05 68 1004.0
20260503011534 57 43 3.0 0.0 0.00 0.00 0.05 72 1004.0
20260503010036 57 74 0.0 0.0 0.00 0.00 0.05 71 1004.2
20260503004530 56 76 3.0 0.0 0.00 0.00 0.05 67 1004.0
20260503003026 58 134 8.0 0.0 0.00 0.00 0.05 63 1004.0
20260503001526 65 129 5.0 0.0 0.00 0.00 0.00 36 1003.3
20260503000023 66 130 2.0 0.0 0.00 0.00 0.00 32 1002.9
20260502234525 66 115 4.0 0.0 0.00 0.00 0.00 31 1002.7
20260502233022 67 147 8.0 0.0 0.00 0.00 0.00 30 1002.7
20260502231524 69 143 3.0 0.0 0.00 0.00 0.00 28 1002.6
20260502230021 69 141 5.0 0.0 0.00 0.00 0.00 27 1002.7
20260502224523 69 146 2.0 0.0 0.00 0.00 0.00 27 1002.8
20260502223018 68 244 7.0 0.0 0.00 0.00 0.00 28 1003.0
20260502221518 68 154 3.0 0.0 0.00 0.00 0.00 30 1003.2
20260502220015 68 148 4.0 0.0 0.00 0.00 0.00 30 1003.6